TimeMST,TemperatureF,Dew PointF,Humidity,Sea Level PressureIn,VisibilityMPH,Wind Direction,Wind SpeedMPH,Gust SpeedMPH,PrecipitationIn,Events,Conditions,WindDirDegrees,DateUTC
12:19 AM,30.2,15.8,55,30.54,10.0,North,3.5,-,N/A,,Clear,360,2012-11-05 07:19:00
12:39 AM,30.2,15.8,55,30.54,10.0,Calm,Calm,-,N/A,,Clear,0,2012-11-05 07:39:00
12:59 AM,30.2,15.8,55,30.54,10.0,WSW,3.5,-,N/A,,Clear,240,2012-11-05 07:59:00
1:19 AM,30.2,15.8,55,30.54,10.0,SSW,5.8,-,N/A,,Clear,210,2012-11-05 08:19:00
1:39 AM,30.2,17.6,60,30.54,10.0,SSW,6.9,-,N/A,,Clear,200,2012-11-05 08:39:00
1:59 AM,30.2,15.8,55,30.54,10.0,South,4.6,-,N/A,,Clear,190,2012-11-05 08:59:00
2:19 AM,30.2,15.8,55,30.54,10.0,South,5.8,-,N/A,,Clear,190,2012-11-05 09:19:00
2:39 AM,32.0,15.8,51,30.54,10.0,North,6.9,-,N/A,,Clear,360,2012-11-05 09:39:00
2:59 AM,30.2,17.6,60,30.52,10.0,NNE,8.1,-,N/A,,Clear,30,2012-11-05 09:59:00
3:19 AM,30.2,17.6,60,30.52,10.0,NNE,10.4,19.6,N/A,,Clear,20,2012-11-05 10:19:00
3:39 AM,28.4,19.4,69,30.52,10.0,NE,13.8,18.4,N/A,,Clear,40,2012-11-05 10:39:00
3:59 AM,30.2,17.6,60,30.52,10.0,NW,6.9,17.3,N/A,,Clear,320,2012-11-05 10:59:00
4:19 AM,32.0,17.6,55,30.51,10.0,North,9.2,18.4,N/A,,Clear,350,2012-11-05 11:19:00
4:39 AM,30.2,17.6,60,30.50,10.0,NNE,9.2,16.1,N/A,,Clear,30,2012-11-05 11:39:00
4:59 AM,30.2,17.6,60,30.51,10.0,NW,6.9,-,N/A,,Clear,320,2012-11-05 11:59:00
5:19 AM,32.0,17.6,55,30.51,10.0,NNW,5.8,18.4,N/A,,Clear,330,2012-11-05 12:19:00
5:39 AM,32.0,17.6,55,30.51,10.0,North,10.4,18.4,N/A,,Clear,360,2012-11-05 12:39:00
5:59 AM,32.0,17.6,55,30.52,10.0,NNW,4.6,-,N/A,,Clear,330,2012-11-05 12:59:00
6:19 AM,30.2,17.6,60,30.52,10.0,NNW,5.8,-,N/A,,Clear,330,2012-11-05 13:19:00
6:39 AM,30.2,17.6,60,30.52,10.0,North,8.1,-,N/A,,Clear,350,2012-11-05 13:39:00
6:59 AM,32.0,17.6,55,30.52,10.0,NNW,8.1,-,N/A,,Clear,340,2012-11-05 13:59:00
7:19 AM,32.0,17.6,55,30.53,10.0,NNW,9.2,17.3,N/A,,Clear,330,2012-11-05 14:19:00
7:39 AM,33.8,15.8,48,30.53,10.0,NNW,8.1,-,N/A,,Clear,330,2012-11-05 14:39:00
7:59 AM,33.8,15.8,48,30.54,10.0,WNW,5.8,-,N/A,,Clear,300,2012-11-05 14:59:00
8:19 AM,35.6,17.6,48,30.54,10.0,West,4.6,-,N/A,,Clear,280,2012-11-05 15:19:00
8:39 AM,35.6,19.4,52,30.54,10.0,NW,3.5,-,N/A,,Clear,320,2012-11-05 15:39:00
8:59 AM,37.4,17.6,45,30.55,10.0,NNE,9.2,-,N/A,,Clear,30,2012-11-05 15:59:00
9:19 AM,37.4,17.6,45,30.55,10.0,ENE,5.8,-,N/A,,Clear,60,2012-11-05 16:19:00
9:39 AM,42.8,17.6,36,30.55,10.0,NE,5.8,16.1,N/A,,Clear,50,2012-11-05 16:39:00
9:59 AM,39.2,17.6,42,30.56,10.0,NE,5.8,-,N/A,,Clear,40,2012-11-05 16:59:00
10:19 AM,41.0,17.6,39,30.57,10.0,NE,12.7,20.7,N/A,,Clear,40,2012-11-05 17:19:00
10:39 AM,41.0,17.6,39,30.57,10.0,NNE,11.5,21.9,N/A,,Clear,20,2012-11-05 17:39:00
10:59 AM,41.0,15.8,36,30.57,10.0,Calm,Calm,-,N/A,,Clear,0,2012-11-05 17:59:00
11:19 AM,42.8,17.6,36,30.55,10.0,Calm,Calm,-,N/A,,Clear,0,2012-11-05 18:19:00
11:39 AM,44.6,17.6,34,30.55,10.0,West,3.5,-,N/A,,Clear,260,2012-11-05 18:39:00
11:59 AM,44.6,15.8,31,30.54,10.0,North,4.6,-,N/A,,Clear,350,2012-11-05 18:59:00
12:19 PM,44.6,12.2,27,30.54,10.0,North,5.8,-,N/A,,Clear,350,2012-11-05 19:19:00
12:39 PM,44.6,12.2,27,30.53,10.0,NNW,5.8,-,N/A,,Clear,340,2012-11-05 19:39:00
12:59 PM,42.8,14.0,31,30.52,10.0,North,5.8,20.7,N/A,,Clear,360,2012-11-05 19:59:00
1:19 PM,44.6,12.2,27,30.52,10.0,NE,12.7,24.2,N/A,,Clear,40,2012-11-05 20:19:00
1:39 PM,44.6,14.0,29,30.52,10.0,NW,10.4,20.7,N/A,,Clear,310,2012-11-05 20:39:00
1:59 PM,44.6,14.0,29,30.52,10.0,North,8.1,21.9,N/A,,Clear,360,2012-11-05 20:59:00
2:19 PM,46.4,14.0,27,30.52,10.0,North,11.5,23.0,N/A,,Clear,360,2012-11-05 21:19:00
2:39 PM,46.4,12.2,25,30.52,10.0,NNW,8.1,-,N/A,,Clear,340,2012-11-05 21:39:00
2:59 PM,44.6,12.2,27,30.52,10.0,WNW,5.8,17.3,N/A,,Clear,300,2012-11-05 21:59:00
3:19 PM,44.6,10.4,25,30.52,10.0,North,9.2,16.1,N/A,,Clear,350,2012-11-05 22:19:00
3:39 PM,42.8,8.6,25,30.53,10.0,North,6.9,24.2,N/A,,Clear,360,2012-11-05 22:39:00
3:59 PM,42.8,8.6,25,30.53,10.0,North,4.6,-,N/A,,Clear,350,2012-11-05 22:59:00
4:19 PM,42.8,6.8,23,30.53,10.0,NNE,12.7,20.7,N/A,,Clear,20,2012-11-05 23:19:00
4:39 PM,41.0,8.6,26,30.52,10.0,North,5.8,19.6,N/A,,Clear,360,2012-11-05 23:39:00
4:59 PM,41.0,10.4,29,30.52,10.0,West,5.8,-,N/A,,Clear,280,2012-11-05 23:59:00
5:19 PM,37.4,12.2,36,30.52,10.0,West,8.1,-,N/A,,Clear,260,2012-11-06 00:19:00
5:39 PM,37.4,12.2,36,30.53,10.0,WNW,5.8,-,N/A,,Clear,290,2012-11-06 00:39:00
5:59 PM,37.4,10.4,33,30.53,10.0,NW,11.5,20.7,N/A,,Clear,310,2012-11-06 00:59:00
6:19 PM,35.6,10.4,35,30.52,10.0,WNW,10.4,-,N/A,,Clear,300,2012-11-06 01:19:00
6:39 PM,35.6,8.6,33,30.53,10.0,NW,6.9,-,N/A,,Clear,310,2012-11-06 01:39:00
6:59 PM,33.8,12.2,41,30.53,10.0,WSW,5.8,-,N/A,,Clear,250,2012-11-06 01:59:00
7:19 PM,35.6,8.6,33,30.53,10.0,NNW,5.8,-,N/A,,Clear,340,2012-11-06 02:19:00
7:39 PM,35.6,5.0,28,30.53,10.0,NNE,15.0,21.9,N/A,,Clear,20,2012-11-06 02:39:00
7:59 PM,35.6,1.4,24,30.53,10.0,NNE,13.8,20.7,N/A,,Clear,30,2012-11-06 02:59:00
8:19 PM,33.8,1.4,25,30.54,10.0,NE,5.8,18.4,N/A,,Clear,40,2012-11-06 03:19:00
8:39 PM,33.8,3.2,28,30.54,10.0,East,4.6,-,N/A,,Clear,80,2012-11-06 03:39:00
8:59 PM,33.8,1.4,25,30.54,10.0,NW,4.6,-,N/A,,Clear,320,2012-11-06 03:59:00
9:19 PM,33.8,1.4,25,30.54,10.0,NNW,5.8,-,N/A,,Clear,340,2012-11-06 04:19:00
9:39 PM,32.0,1.4,27,30.54,10.0,East,10.4,-,N/A,,Clear,100,2012-11-06 04:39:00
9:59 PM,32.0,1.4,27,30.54,10.0,ENE,9.2,-,N/A,,Clear,60,2012-11-06 04:59:00
10:19 PM,32.0,3.2,30,30.54,10.0,ENE,11.5,-,N/A,,Clear,60,2012-11-06 05:19:00
10:39 PM,32.0,3.2,30,30.54,10.0,ENE,9.2,-,N/A,,Clear,60,2012-11-06 05:39:00
10:59 PM,32.0,3.2,30,30.53,10.0,NE,13.8,-,N/A,,Clear,50,2012-11-06 05:59:00
11:19 PM,32.0,8.6,38,30.53,10.0,NE,16.1,-,N/A,,Clear,40,2012-11-06 06:19:00
11:39 PM,32.0,8.6,38,30.54,10.0,SW,4.6,-,N/A,,Clear,230,2012-11-06 06:39:00
11:59 PM,33.8,5.0,30,30.54,10.0,Calm,Calm,-,N/A,,Clear,0,2012-11-06 06:59:00